Starlink 32477

operational
NORAD ID: 62038 Int'l Des: 2024-216 Owner: SPXS Country: US Constellation: starlink
LEOCIRCULAR

Starlink 32477について

説明を読み込み中...

リアルタイム位置

3D地球を読み込み中...

次回通過

高度履歴

Altitude vs Time

uPlot chart will show altitude changes over time

軌道要素

1 62038U 24216G 25260.13100296 .00038865 00000-0 14160-2 0 9995
2 62038 43.0007 152.8981 0002044 270.2072 89.8545 15.27543197 46215
Epoch: Sep 17, 2025 • Age: 8 hours

現在のステータス

高度 486.6 km
速度 7.63 km/s
衛星直下点 38.87°N, 44.4°E
打ち上げ日 Nov 21, 2024
運用期間 0.8 years
タイプ internet

技術仕様

分類 Payload
質量 730.00 kg
乾燥質量 700.00 kg
総質量 730.00 kg
長さ 0.30 m
直径 4.10 m
スパン 29.00 m
形状 Box + pan
製造者 SPXS
バスタイプ Starlink V2M
フェーズステータス In Orbit
所有者/国 SPXS/US

大規模コンステレーション

Loading constellations...